Regional Weather Roundup
Issued by NWS

Home | Current Version | Previous Version | Graphics & Text | Print | Product List | Glossary On
Versions: 1 2 3 4 5 6 7 8 9 10 11 12 13 14 15 16 17 18 19 20 21 22 23 24 25 26 27 28 29 30 31 32 33 34 35 36 37 38 39 40 41 42 43 44 45 46 47 48 49 50
000
ASUS45 KBOI 260410
RWRID
WEATHER ROUNDUP FOR IDAHO
NATIONAL WEATHER SERVICE BOISE ID
1000 PM MDT SAT APR 25 2015

NOTE: "FAIR" INDICATES FEW OR NO CLOUDS BELOW 12000 FEET
WITH NO SIGNIFICANT WEATHER AND/OR OBSTRUCTIONS TO VISIBILITY

IDZ012-014-260500-
SOUTHWEST IDAHO


CITY           SKY/WX    TMP DP  RH WIND       PRES   REMARKS
BOISE          PTCLDY    48  29  47 NW15G24   29.87R
CALDWELL       MOCLDY    46  28  49 W16       29.91R
MOUNTAIN HOME  PTCLDY    47  31  54 NW24G31   29.85R
$$

IDZ016-017-260500-
SOUTHCENTRAL IDAHO


CITY           SKY/WX    TMP DP  RH WIND       PRES   REMARKS
BURLEY         LGT RAIN  42  34  73 W8        29.81R
JEROME         CLOUDY    42  32  67 S3        29.82R
TWIN FALLS     CLOUDY    41  33  73 S9        29.82R
$$

IDZ019>023-260500-
SOUTHEAST IDAHO


CITY           SKY/WX    TMP DP  RH WIND       PRES   REMARKS
IDAHO FALLS    CLOUDY    49  32  52 NE3       29.74R
POCATELLO      CLOUDY    46  34  62 W21       29.78R
REXBURG        CLOUDY    46  32  58 NE7       29.74S
$$

IDZ006-010-011-018-031-032-260500-
CENTRAL IDAHO MOUNTAINS


CITY           SKY/WX    TMP DP  RH WIND       PRES   REMARKS
MCCALL         MOCLDY    35  28  75 W9        29.86R WCI  28
HAILEY         DRIZZLE   39  36  87 N6        29.81R WCI  35
STANLEY          N/A     34  23  64 CALM      29.83R
SALMON         CLOUDY    45  32  61 CALM      29.81R
CHALLIS        LGT RAIN  37  36  96 SE5       29.82R WCI  33
$$

IDZ002-004-006-007-026-260500-
NORTHERN IDAHO


CITY           SKY/WX    TMP DP  RH WIND       PRES   REMARKS
LEWISTON       CLOUDY    48  35  60 SE7       29.95R
LOWELL           N/A     45  43  93 CALM      29.97R
COEUR D`ALENE  CLOUDY    41  37  87 W3        29.98R
MULLAN PASS    CLOUDY    27  27 100 NW3       29.89R FOG
$$


USA.gov is the U.S. government's official web portal to all federal, state and local government web resources and services.